Regional Weather Roundup
Issued by NWS

Home | Current Version | Previous Version | Graphics & Text | Print | Product List | Glossary On
Versions: 1 2 3 4 5 6 7 8 9 10 11 12 13 14 15 16 17 18 19 20 21 22 23 24 25 26 27 28 29 30 31 32 33 34 35 36 37 38 39 40 41 42 43 44 45 46 47 48 49 50
000
ASUS43 KBIS 121910
RWRND

NORTH DAKOTA REGIONAL WEATHER ROUNDUP
NATIONAL WEATHER SERVICE BISMARCK ND
100 PM CST TUE DEC 12 2017

NOTE: "FAIR" INDICATES FEW OR NO CLOUDS BELOW 12,000 FEET WITH NO
SIGNIFICANT WEATHER AND/OR OBSTRUCTIONS TO VISIBILITY.


NDZ001>003-009>011-017-122000-
NORTHWEST NORTH DAKOTA

CITY           SKY/WX    TMP DP  RH WIND       PRES   REMARKS
WILLISTON      SUNNY     43  25  49 SW10      29.89F
MINOT          SUNNY     47  26  44 SW13      29.81F
MINOT AFB      SUNNY     45  26  47 W18       29.79F
$$

NDZ018>021-031>035-040>046-122000-
SOUTHWEST NORTH DAKOTA

CITY           SKY/WX    TMP DP  RH WIND       PRES   REMARKS
BISMARCK       SUNNY     46  26  45 W13       29.91F
DICKINSON      SUNNY     50  25  37 W18G26    29.92F
GARRISON         N/A     46  25  43 W20       29.85F
HETTINGER ARPT SUNNY     55  22  27 W20       29.97F
$$

NDZ004>008-012>016-024-026-027-054-122000-
NORTHEAST NORTH DAKOTA

CITY           SKY/WX    TMP DP  RH WIND       PRES   REMARKS
GRAND FORKS    CLOUDY    32  29  88 S8        29.83F
GRND FRKS AFB  CLOUDY    36  28  71 SW5       29.82F
DEVILS LAKE    CLOUDY    35  28  75 SW12      29.80F
$$

NDZ022-023-025-028>030-036>039-047>053-122000-
SOUTHEAST NORTH DAKOTA

CITY           SKY/WX    TMP DP  RH WIND       PRES   REMARKS
FARGO          CLOUDY    33  28  81 S7        29.90F
JAMESTOWN      CLOUDY    37  28  70 W13       29.86F
$$





USA.gov is the U.S. government's official web portal to all federal, state and local government web resources and services.